Saint Bonnet de Bellac- Haute Vienne - France
Donnes mto: samedi, 03/03/2012
Date Horaire Temp. E. Hum. E. P.atmo. Pluie Vent Direction Direction Ensoleilleme Solaire P. de rose Temp au vent Rafales
03/03/2012 00:00 3,4 C 91 % 1021,5 hPa 0,0 mm 0,0 km/h (0 Bft) E-SE 112 0 min 0 W/m 2,1 C 3,4 C 0,0 km/h (0 Bft)
03/03/2012 00:10 3,3 C 91 % 1021,5 hPa 0,0 mm 0,0 km/h (0 Bft) E-SE 112 0 min 0 W/m 2,0 C 3,3 C 0,0 km/h (0 Bft)
03/03/2012 00:20 3,1 C 91 % 1021,5 hPa 0,0 mm 0,0 km/h (0 Bft) E-SE 112 0 min 0 W/m 1,8 C 3,1 C 0,0 km/h (0 Bft)
03/03/2012 00:30 2,9 C 91 % 1021,6 hPa 0,0 mm 0,0 km/h (0 Bft) E-SE 112 0 min 0 W/m 1,6 C 2,9 C 0,0 km/h (0 Bft)
03/03/2012 00:40 2,8 C 91 % 1021,6 hPa 0,0 mm 0,0 km/h (0 Bft) E-SE 112 0 min 0 W/m 1,5 C 2,8 C 0,0 km/h (0 Bft)
03/03/2012 00:50 2,6 C 91 % 1021,6 hPa 0,0 mm 0,0 km/h (0 Bft) E-SE 112 0 min 0 W/m 1,3 C 2,6 C 0,0 km/h (0 Bft)
03/03/2012 01:00 2,5 C 91 % 1021,7 hPa 0,0 mm 0,0 km/h (0 Bft) E-SE 112 0 min 0 W/m 1,2 C 2,5 C 0,0 km/h (0 Bft)
03/03/2012 01:10 2,4 C 91 % 1021,6 hPa 0,0 mm 0,0 km/h (0 Bft) E-SE 112 0 min 0 W/m 1,1 C 2,4 C 0,0 km/h (0 Bft)
03/03/2012 01:20 2,3 C 91 % 1021,6 hPa 0,0 mm 0,0 km/h (0 Bft) E-SE 112 0 min 0 W/m 1,0 C 2,3 C 0,0 km/h (0 Bft)
03/03/2012 01:30 2,2 C 91 % 1021,5 hPa 0,0 mm 0,0 km/h (0 Bft) E 90 0 min 0 W/m 0,9 C 2,2 C 2,9 km/h (1 Bft)
03/03/2012 01:40 2,2 C 91 % 1021,5 hPa 0,0 mm 0,0 km/h (0 Bft) E-SE 112 0 min 0 W/m 0,9 C 2,2 C 0,0 km/h (0 Bft)
03/03/2012 01:50 2,1 C 91 % 1021,5 hPa 0,0 mm 0,0 km/h (0 Bft) E 90 0 min 0 W/m 0,8 C 2,1 C 0,0 km/h (0 Bft)
03/03/2012 02:02 2,1 C 91 % 1021,5 hPa 0,0 mm 0,0 km/h (0 Bft) E 90 0 min 0 W/m 0,8 C 2,1 C 0,0 km/h (0 Bft)
03/03/2012 02:10 2,1 C 92 % 1021,5 hPa 0,0 mm 0,0 km/h (0 Bft) E-SE 112 0 min 0 W/m 0,9 C 2,1 C 0,0 km/h (0 Bft)
03/03/2012 02:20 2,2 C 92 % 1021,6 hPa 0,1 mm 0,7 km/h (0 Bft) E-SE 112 0 min 0 W/m 1,0 C 2,2 C 0,7 km/h (0 Bft)
03/03/2012 02:30 2,3 C 92 % 1021,6 hPa 0,0 mm 1,4 km/h (1 Bft) E-SE 112 0 min 0 W/m 1,1 C 2,3 C 4,0 km/h (1 Bft)
03/03/2012 02:40 2,3 C 92 % 1021,6 hPa 0,0 mm 0,0 km/h (0 Bft) E-SE 112 0 min 0 W/m 1,1 C 2,3 C 0,0 km/h (0 Bft)
03/03/2012 02:50 2,2 C 92 % 1021,6 hPa 0,0 mm 0,0 km/h (0 Bft) E-SE 112 0 min 0 W/m 1,0 C 2,2 C 0,0 km/h (0 Bft)
03/03/2012 03:00 2,2 C 92 % 1021,5 hPa 0,0 mm 0,0 km/h (0 Bft) E-SE 112 0 min 0 W/m 1,0 C 2,2 C 0,0 km/h (0 Bft)
03/03/2012 03:10 2,3 C 92 % 1021,5 hPa 0,0 mm 0,4 km/h (0 Bft) E-SE 112 0 min 0 W/m 1,1 C 2,3 C 3,2 km/h (1 Bft)
03/03/2012 03:20 2,3 C 92 % 1021,5 hPa 0,0 mm 0,0 km/h (0 Bft) E-SE 112 0 min 0 W/m 1,1 C 2,3 C 2,9 km/h (1 Bft)
03/03/2012 03:30 2,3 C 92 % 1021,5 hPa 0,0 mm 0,0 km/h (0 Bft) E-SE 112 0 min 0 W/m 1,1 C 2,3 C 0,0 km/h (0 Bft)
03/03/2012 03:40 2,2 C 92 % 1021,4 hPa 0,0 mm 1,8 km/h (1 Bft) E 90 0 min 0 W/m 1,0 C 2,2 C 3,6 km/h (1 Bft)
03/03/2012 03:50 2,3 C 92 % 1021,4 hPa 0,0 mm 0,0 km/h (0 Bft) E-SE 112 0 min 0 W/m 1,1 C 2,3 C 0,0 km/h (0 Bft)
03/03/2012 04:00 2,3 C 92 % 1021,5 hPa 0,0 mm 0,0 km/h (0 Bft) E-SE 112 0 min 0 W/m 1,1 C 2,3 C 0,0 km/h (0 Bft)
03/03/2012 04:10 2,1 C 92 % 1021,5 hPa 0,0 mm 0,0 km/h (0 Bft) O 270 0 min 0 W/m 0,9 C 2,1 C 0,0 km/h (0 Bft)
03/03/2012 04:20 2,0 C 92 % 1021,4 hPa 0,0 mm 0,0 km/h (0 Bft) O 270 0 min 0 W/m 0,8 C 2,0 C 0,0 km/h (0 Bft)
03/03/2012 04:30 1,9 C 92 % 1021,4 hPa 0,0 mm 0,0 km/h (0 Bft) O 270 0 min 0 W/m 0,7 C 1,9 C 0,0 km/h (0 Bft)
03/03/2012 04:40 2,2 C 93 % 1021,5 hPa 0,0 mm 0,0 km/h (0 Bft) SO 225 0 min 0 W/m 1,2 C 2,2 C 0,0 km/h (0 Bft)
03/03/2012 04:50 2,9 C 93 % 1021,4 hPa 0,0 mm 0,0 km/h (0 Bft) O-SO 247 0 min 0 W/m 1,9 C 2,9 C 0,0 km/h (0 Bft)
03/03/2012 05:00 3,4 C 94 % 1021,4 hPa 0,0 mm 0,0 km/h (0 Bft) O-SO 247 0 min 0 W/m 2,5 C 3,4 C 0,0 km/h (0 Bft)
03/03/2012 05:10 3,8 C 94 % 1021,4 hPa 0,0 mm 0,0 km/h (0 Bft) O-SO 247 0 min 0 W/m 2,9 C 3,8 C 0,0 km/h (0 Bft)
03/03/2012 05:20 4,3 C 94 % 1021,6 hPa 0,0 mm 0,7 km/h (0 Bft) SO 225 0 min 0 W/m 3,4 C 4,3 C 3,2 km/h (1 Bft)
03/03/2012 05:30 4,5 C 94 % 1021,6 hPa 0,0 mm 0,4 km/h (0 Bft) S-SO 202 0 min 0 W/m 3,6 C 4,5 C 1,4 km/h (1 Bft)
03/03/2012 05:40 4,8 C 94 % 1021,5 hPa 0,0 mm 0,0 km/h (0 Bft) SO 225 0 min 0 W/m 3,9 C 4,8 C 0,0 km/h (0 Bft)
03/03/2012 05:50 4,6 C 94 % 1021,9 hPa 0,0 mm 0,0 km/h (0 Bft) O-SO 247 0 min 0 W/m 3,7 C 4,6 C 0,0 km/h (0 Bft)
03/03/2012 06:00 4,6 C 94 % 1022,1 hPa 0,0 mm 1,8 km/h (1 Bft) S-SO 202 0 min 0 W/m 3,7 C 4,6 C 1,8 km/h (1 Bft)
03/03/2012 06:10 4,6 C 94 % 1022,2 hPa 0,0 mm 0,0 km/h (0 Bft) O-SO 247 0 min 0 W/m 3,7 C 4,6 C 3,6 km/h (1 Bft)
03/03/2012 06:20 4,6 C 94 % 1022,2 hPa 0,0 mm 3,6 km/h (1 Bft) S-SO 202 0 min 0 W/m 3,7 C 4,6 C 6,8 km/h (2 Bft)
03/03/2012 06:30 4,8 C 94 % 1022,2 hPa 0,0 mm 4,0 km/h (1 Bft) S 180 0 min 0 W/m 3,9 C 4,8 C 10,8 km/h (2 Bft)
03/03/2012 06:40 4,8 C 94 % 1022,3 hPa 0,0 mm 1,4 km/h (1 Bft) O 270 0 min 0 W/m 3,9 C 4,8 C 3,2 km/h (1 Bft)
03/03/2012 06:50 4,8 C 94 % 1022,4 hPa 0,0 mm 2,5 km/h (1 Bft) S-SO 202 0 min 0 W/m 3,9 C 4,8 C 6,8 km/h (2 Bft)
03/03/2012 07:00 4,9 C 94 % 1022,4 hPa 0,0 mm 5,0 km/h (1 Bft) S 180 0 min 0 W/m 4,0 C 4,0 C 7,6 km/h (2 Bft)
03/03/2012 07:10 4,8 C 94 % 1022,5 hPa 0,0 mm 5,0 km/h (1 Bft) SO 225 0 min 0 W/m 3,9 C 3,9 C 9,4 km/h (2 Bft)
03/03/2012 07:20 4,8 C 94 % 1022,5 hPa 0,0 mm 1,1 km/h (1 Bft) SO 225 0 min 0 W/m 3,9 C 4,8 C 4,3 km/h (1 Bft)
03/03/2012 07:30 4,8 C 95 % 1022,7 hPa 0,0 mm 2,2 km/h (1 Bft) O-SO 247 0 min 0 W/m 4,1 C 4,8 C 4,3 km/h (1 Bft)
03/03/2012 07:40 4,7 C 95 % 1022,9 hPa 0,0 mm 4,7 km/h (1 Bft) SO 225 0 min 0 W/m 4,0 C 3,9 C 9,4 km/h (2 Bft)
03/03/2012 07:50 4,8 C 95 % 1023,2 hPa 0,0 mm 2,2 km/h (1 Bft) SO 225 2 min 0 W/m 4,1 C 4,8 C 4,3 km/h (1 Bft)
03/03/2012 08:00 4,8 C 95 % 1023,3 hPa 0,0 mm 4,7 km/h (1 Bft) S-SO 202 2 min 0 W/m 4,1 C 4,0 C 8,3 km/h (2 Bft)
03/03/2012 08:10 4,8 C 95 % 1023,5 hPa 0,0 mm 5,0 km/h (1 Bft) SO 225 2 min 0 W/m 4,1 C 3,9 C 7,9 km/h (2 Bft)
03/03/2012 08:20 4,9 C 95 % 1023,7 hPa 0,0 mm 3,2 km/h (1 Bft) SO 225 2 min 0 W/m 4,2 C 4,9 C 6,5 km/h (2 Bft)
03/03/2012 08:30 4,9 C 95 % 1023,7 hPa 0,0 mm 2,9 km/h (1 Bft) S 180 2 min 0 W/m 4,2 C 4,9 C 3,2 km/h (1 Bft)
03/03/2012 08:40 5,0 C 95 % 1023,9 hPa 0,0 mm 2,2 km/h (1 Bft) S-SO 202 2 min 0 W/m 4,3 C 5,0 C 4,0 km/h (1 Bft)
03/03/2012 08:50 5,1 C 95 % 1023,9 hPa 0,0 mm 4,0 km/h (1 Bft) S-SO 202 2 min 0 W/m 4,4 C 5,1 C 8,3 km/h (2 Bft)
03/03/2012 09:00 5,2 C 95 % 1024,1 hPa 0,0 mm 5,0 km/h (1 Bft) SO 225 2 min 0 W/m 4,5 C 4,3 C 9,0 km/h (2 Bft)
03/03/2012 09:10 5,3 C 95 % 1024,2 hPa 0,0 mm 2,5 km/h (1 Bft) S-SO 202 2 min 0 W/m 4,6 C 5,3 C 7,2 km/h (2 Bft)
03/03/2012 09:20 5,4 C 95 % 1024,4 hPa 0,0 mm 1,4 km/h (1 Bft) SO 225 2 min 0 W/m 4,7 C 5,4 C 3,6 km/h (1 Bft)
03/03/2012 09:30 5,5 C 95 % 1024,6 hPa 0,0 mm 5,4 km/h (2 Bft) SO 225 2 min 0 W/m 4,8 C 4,5 C 7,9 km/h (2 Bft)
03/03/2012 09:40 5,8 C 95 % 1024,7 hPa 0,0 mm 4,3 km/h (1 Bft) SO 225 2 min 0 W/m 5,1 C 5,8 C 4,3 km/h (1 Bft)
03/03/2012 09:50 5,9 C 95 % 1024,9 hPa 0,0 mm 2,2 km/h (1 Bft) SO 225 2 min 0 W/m 5,2 C 5,9 C 3,2 km/h (1 Bft)
03/03/2012 10:00 6,1 C 95 % 1025,0 hPa 0,0 mm 3,6 km/h (1 Bft) S-SO 202 2 min 0 W/m 5,4 C 6,1 C 6,8 km/h (2 Bft)
03/03/2012 10:10 6,2 C 95 % 1025,1 hPa 0,0 mm 4,7 km/h (1 Bft) SO 225 2 min 0 W/m 5,5 C 5,6 C 8,6 km/h (2 Bft)
03/03/2012 10:20 6,3 C 95 % 1025,1 hPa 0,0 mm 3,2 km/h (1 Bft) SO 225 2 min 0 W/m 5,6 C 6,3 C 6,5 km/h (2 Bft)
03/03/2012 10:30 6,4 C 95 % 1025,0 hPa 0,0 mm 2,9 km/h (1 Bft) S-SO 202 2 min 0 W/m 5,7 C 6,4 C 7,2 km/h (2 Bft)
03/03/2012 10:40 6,5 C 95 % 1025,0 hPa 0,0 mm 0,4 km/h (0 Bft) S-SO 202 2 min 0 W/m 5,8 C 6,5 C 3,2 km/h (1 Bft)
03/03/2012 10:50 6,6 C 95 % 1025,2 hPa 0,0 mm 0,7 km/h (0 Bft) S-SO 202 2 min 0 W/m 5,9 C 6,6 C 3,6 km/h (1 Bft)
03/03/2012 11:00 6,8 C 95 % 1025,3 hPa 0,0 mm 2,2 km/h (1 Bft) SO 225 2 min 0 W/m 6,1 C 6,8 C 4,3 km/h (1 Bft)
03/03/2012 11:10 6,8 C 95 % 1025,3 hPa 0,0 mm 3,2 km/h (1 Bft) SO 225 2 min 0 W/m 6,1 C 6,8 C 6,5 km/h (2 Bft)
03/03/2012 11:20 6,9 C 95 % 1025,5 hPa 0,0 mm 1,4 km/h (1 Bft) S-SO 202 2 min 0 W/m 6,2 C 6,9 C 3,2 km/h (1 Bft)
03/03/2012 11:30 7,1 C 96 % 1025,2 hPa 0,0 mm 1,8 km/h (1 Bft) SO 225 2 min 0 W/m 6,5 C 7,1 C 4,0 km/h (1 Bft)
03/03/2012 11:40 7,4 C 96 % 1025,3 hPa 0,0 mm 2,2 km/h (1 Bft) S-SO 202 2 min 0 W/m 6,8 C 7,4 C 4,0 km/h (1 Bft)
03/03/2012 11:50 7,8 C 96 % 1025,3 hPa 0,0 mm 3,2 km/h (1 Bft) SO 225 2 min 0 W/m 7,2 C 7,8 C 4,7 km/h (1 Bft)
03/03/2012 12:00 8,0 C 96 % 1025,4 hPa 0,0 mm 2,9 km/h (1 Bft) S-SE 157 2 min 0 W/m 7,4 C 8,0 C 4,0 km/h (1 Bft)
03/03/2012 12:10 8,2 C 95 % 1025,5 hPa 0,0 mm 2,9 km/h (1 Bft) S-SO 202 2 min 0 W/m 7,4 C 8,2 C 4,3 km/h (1 Bft)
03/03/2012 12:20 8,5 C 95 % 1025,4 hPa 0,0 mm 0,7 km/h (0 Bft) S 180 2 min 0 W/m 7,7 C 8,5 C 6,1 km/h (2 Bft)
03/03/2012 12:30 8,8 C 95 % 1025,5 hPa 0,0 mm 6,5 km/h (2 Bft) S 180 2 min 0 W/m 8,0 C 8,0 C 6,5 km/h (2 Bft)
03/03/2012 12:40 9,4 C 96 % 1025,4 hPa 0,0 mm 1,8 km/h (1 Bft) SO 225 2 min 0 W/m 8,8 C 9,4 C 4,0 km/h (1 Bft)
03/03/2012 12:50 10,2 C 95 % 1025,4 hPa 0,0 mm 0,7 km/h (0 Bft) SO 225 2 min 0 W/m 9,4 C 10,2 C 4,3 km/h (1 Bft)
03/03/2012 13:00 11,1 C 95 % 1025,6 hPa 0,0 mm 3,2 km/h (1 Bft) SO 225 2 min 0 W/m 10,3 C 11,1 C 7,2 km/h (2 Bft)
03/03/2012 13:10 11,4 C 91 % 1025,6 hPa 0,0 mm 6,8 km/h (2 Bft) SO 225 2 min 0 W/m 10,0 C 11,4 C 9,4 km/h (2 Bft)
03/03/2012 13:20 11,4 C 87 % 1025,6 hPa 0,0 mm 2,2 km/h (1 Bft) O-SO 247 2 min 0 W/m 9,3 C 11,4 C 2,9 km/h (1 Bft)
03/03/2012 13:30 11,4 C 85 % 1025,3 hPa 0,0 mm 1,4 km/h (1 Bft) O-SO 247 2 min 0 W/m 9,0 C 11,4 C 4,3 km/h (1 Bft)
03/03/2012 13:40 11,2 C 84 % 1025,2 hPa 0,0 mm 5,4 km/h (2 Bft) SO 225 2 min 0 W/m 8,6 C 11,2 C 10,4 km/h (2 Bft)
03/03/2012 13:50 11,4 C 83 % 1025,3 hPa 0,0 mm 9,7 km/h (2 Bft) SO 225 2 min 0 W/m 8,6 C 11,4 C 13,3 km/h (3 Bft)
03/03/2012 14:00 11,3 C 83 % 1025,3 hPa 0,0 mm 2,2 km/h (1 Bft) SO 225 2 min 0 W/m 8,5 C 11,3 C 3,2 km/h (1 Bft)
03/03/2012 14:10 11,1 C 83 % 1025,2 hPa 0,0 mm 5,4 km/h (2 Bft) O-SO 247 2 min 0 W/m 8,3 C 11,1 C 5,4 km/h (2 Bft)
03/03/2012 14:20 11,1 C 84 % 1025,2 hPa 0,0 mm 0,4 km/h (0 Bft) O-SO 247 2 min 0 W/m 8,5 C 11,1 C 3,2 km/h (1 Bft)
03/03/2012 14:30 11,2 C 84 % 1025,2 hPa 0,0 mm 1,4 km/h (1 Bft) O 270 2 min 0 W/m 8,6 C 11,2 C 4,3 km/h (1 Bft)
03/03/2012 14:40 11,4 C 84 % 1025,1 hPa 0,0 mm 3,6 km/h (1 Bft) O 270 2 min 0 W/m 8,8 C 11,4 C 10,4 km/h (2 Bft)
03/03/2012 14:50 12,1 C 83 % 1024,8 hPa 0,0 mm 4,0 km/h (1 Bft) S-SO 202 2 min 0 W/m 9,3 C 12,1 C 4,3 km/h (1 Bft)
03/03/2012 15:00 12,6 C 79 % 1024,7 hPa 0,0 mm 4,0 km/h (1 Bft) O-SO 247 2 min 0 W/m 9,1 C 12,6 C 7,6 km/h (2 Bft)
03/03/2012 15:10 12,8 C 77 % 1024,6 hPa 0,0 mm 5,4 km/h (2 Bft) SO 225 2 min 0 W/m 8,9 C 12,8 C 6,8 km/h (2 Bft)
03/03/2012 15:20 12,9 C 76 % 1024,5 hPa 0,0 mm 6,8 km/h (2 Bft) S-SO 202 2 min 0 W/m 8,8 C 12,9 C 9,7 km/h (2 Bft)
03/03/2012 15:30 12,9 C 76 % 1024,5 hPa 0,0 mm 2,2 km/h (1 Bft) SO 225 2 min 0 W/m 8,8 C 12,9 C 6,8 km/h (2 Bft)
03/03/2012 15:40 12,8 C 77 % 1024,4 hPa 0,0 mm 0,4 km/h (0 Bft) O-SO 247 2 min 0 W/m 8,9 C 12,8 C 0,4 km/h (0 Bft)
03/03/2012 15:50 12,6 C 76 % 1024,4 hPa 0,0 mm 5,4 km/h (2 Bft) SO 225 2 min 0 W/m 8,5 C 12,6 C 8,3 km/h (2 Bft)
03/03/2012 16:00 12,5 C 78 % 1024,4 hPa 0,0 mm 2,9 km/h (1 Bft) SO 225 2 min 0 W/m 8,8 C 12,5 C 4,0 km/h (1 Bft)
03/03/2012 16:10 12,6 C 77 % 1024,3 hPa 0,0 mm 6,1 km/h (2 Bft) S-SO 202 2 min 0 W/m 8,7 C 12,6 C 6,1 km/h (2 Bft)
03/03/2012 16:20 12,9 C 76 % 1024,2 hPa 0,0 mm 7,9 km/h (2 Bft) S-SO 202 2 min 0 W/m 8,8 C 12,9 C 10,4 km/h (2 Bft)
03/03/2012 16:30 12,9 C 76 % 1024,2 hPa 0,0 mm 2,9 km/h (1 Bft) SO 225 2 min 0 W/m 8,8 C 12,9 C 2,9 km/h (1 Bft)
03/03/2012 16:40 13,0 C 76 % 1024,2 hPa 0,0 mm 4,0 km/h (1 Bft) S-SO 202 2 min 0 W/m 8,9 C 13,0 C 6,5 km/h (2 Bft)
03/03/2012 16:50 12,9 C 76 % 1024,2 hPa 0,0 mm 7,6 km/h (2 Bft) S-SO 202 2 min 0 W/m 8,8 C 12,9 C 15,1 km/h (3 Bft)
03/03/2012 17:00 12,8 C 76 % 1024,1 hPa 0,0 mm 5,8 km/h (2 Bft) S-SO 202 2 min 0 W/m 8,7 C 12,8 C 10,4 km/h (2 Bft)
03/03/2012 17:10 12,8 C 76 % 1024,2 hPa 0,0 mm 3,2 km/h (1 Bft) SO 225 2 min 0 W/m 8,7 C 12,8 C 4,3 km/h (1 Bft)
03/03/2012 17:20 12,9 C 76 % 1024,2 hPa 0,0 mm 3,2 km/h (1 Bft) S-SO 202 2 min 0 W/m 8,8 C 12,9 C 6,1 km/h (2 Bft)
03/03/2012 17:30 12,8 C 76 % 1024,2 hPa 0,0 mm 1,4 km/h (1 Bft) S-SO 202 2 min 0 W/m 8,7 C 12,8 C 3,2 km/h (1 Bft)
03/03/2012 17:40 12,8 C 76 % 1024,3 hPa 0,0 mm 4,0 km/h (1 Bft) SO 225 2 min 0 W/m 8,7 C 12,8 C 6,8 km/h (2 Bft)
03/03/2012 17:50 12,6 C 77 % 1024,4 hPa 0,0 mm 6,1 km/h (2 Bft) S-SO 202 2 min 0 W/m 8,7 C 12,6 C 13,3 km/h (3 Bft)
03/03/2012 18:00 12,3 C 80 % 1024,5 hPa 0,0 mm 4,0 km/h (1 Bft) O 270 2 min 0 W/m 8,9 C 12,3 C 6,5 km/h (2 Bft)
03/03/2012 18:10 12,1 C 81 % 1024,7 hPa 0,0 mm 0,0 km/h (0 Bft) O-SO 247 2 min 0 W/m 8,9 C 12,1 C 0,0 km/h (0 Bft)
03/03/2012 18:20 11,9 C 83 % 1024,7 hPa 0,0 mm 2,5 km/h (1 Bft) SO 225 2 min 0 W/m 9,1 C 11,9 C 7,2 km/h (2 Bft)
03/03/2012 18:30 11,6 C 85 % 1024,8 hPa 0,0 mm 2,5 km/h (1 Bft) SO 225 2 min 0 W/m 9,2 C 11,6 C 3,6 km/h (1 Bft)
03/03/2012 18:40 11,3 C 87 % 1024,8 hPa 0,0 mm 1,1 km/h (1 Bft) SO 225 0 min 0 W/m 9,2 C 11,3 C 4,0 km/h (1 Bft)
03/03/2012 18:50 11,1 C 88 % 1024,8 hPa 0,0 mm 0,4 km/h (0 Bft) SO 225 0 min 0 W/m 9,2 C 11,1 C 0,4 km/h (0 Bft)
03/03/2012 19:00 10,8 C 88 % 1025,1 hPa 0,0 mm 0,0 km/h (0 Bft) SO 225 0 min 0 W/m 8,9 C 10,8 C 1,4 km/h (1 Bft)
03/03/2012 19:10 10,7 C 90 % 1025,0 hPa 0,0 mm 1,8 km/h (1 Bft) S-SO 202 0 min 0 W/m 9,1 C 10,7 C 4,0 km/h (1 Bft)
03/03/2012 19:20 10,6 C 90 % 1025,2 hPa 0,0 mm 0,0 km/h (0 Bft) S-SO 202 0 min 0 W/m 9,0 C 10,6 C 0,0 km/h (0 Bft)
03/03/2012 19:30 10,6 C 91 % 1025,2 hPa 0,1 mm 1,8 km/h (1 Bft) SO 225 0 min 0 W/m 9,2 C 10,6 C 4,3 km/h (1 Bft)
03/03/2012 19:40 10,5 C 91 % 1025,3 hPa 0,1 mm 1,8 km/h (1 Bft) SO 225 0 min 0 W/m 9,1 C 10,5 C 4,0 km/h (1 Bft)
03/03/2012 19:50 10,4 C 92 % 1025,3 hPa 0,1 mm 0,7 km/h (0 Bft) O-SO 247 0 min 0 W/m 9,2 C 10,4 C 2,9 km/h (1 Bft)
03/03/2012 20:00 10,3 C 92 % 1025,4 hPa 0,0 mm 2,2 km/h (1 Bft) S-SO 202 0 min 0 W/m 9,1 C 10,3 C 4,3 km/h (1 Bft)
03/03/2012 20:10 10,2 C 93 % 1025,5 hPa 0,0 mm 5,8 km/h (2 Bft) O-SO 247 0 min 0 W/m 9,1 C 10,2 C 13,3 km/h (3 Bft)
03/03/2012 20:20 10,1 C 93 % 1025,6 hPa 0,0 mm 5,0 km/h (1 Bft) O 270 0 min 0 W/m 9,0 C 10,1 C 8,6 km/h (2 Bft)
03/03/2012 20:30 10,1 C 93 % 1025,5 hPa 0,0 mm 1,1 km/h (1 Bft) SO 225 0 min 0 W/m 9,0 C 10,1 C 4,3 km/h (1 Bft)
03/03/2012 20:40 9,9 C 93 % 1025,6 hPa 0,1 mm 2,5 km/h (1 Bft) O-SO 247 0 min 0 W/m 8,8 C 9,9 C 7,6 km/h (2 Bft)
03/03/2012 20:50 9,9 C 93 % 1025,6 hPa 0,1 mm 1,1 km/h (1 Bft) O-SO 247 0 min 0 W/m 8,8 C 9,9 C 1,1 km/h (1 Bft)
03/03/2012 21:00 9,8 C 93 % 1025,5 hPa 0,0 mm 0,4 km/h (0 Bft) O 270 0 min 0 W/m 8,7 C 9,8 C 4,0 km/h (1 Bft)
03/03/2012 21:10 9,8 C 93 % 1025,4 hPa 0,0 mm 0,0 km/h (0 Bft) O-SO 247 0 min 0 W/m 8,7 C 9,8 C 2,9 km/h (1 Bft)
03/03/2012 21:20 9,7 C 93 % 1025,4 hPa 0,0 mm 1,8 km/h (1 Bft) SO 225 0 min 0 W/m 8,6 C 9,7 C 1,8 km/h (1 Bft)
03/03/2012 21:30 9,6 C 93 % 1025,2 hPa 0,0 mm 2,9 km/h (1 Bft) SO 225 0 min 0 W/m 8,5 C 9,6 C 4,3 km/h (1 Bft)
03/03/2012 21:40 9,3 C 93 % 1025,2 hPa 0,0 mm 0,4 km/h (0 Bft) SO 225 0 min 0 W/m 8,2 C 9,3 C 4,3 km/h (1 Bft)
03/03/2012 21:50 9,1 C 93 % 1025,2 hPa 0,0 mm 2,2 km/h (1 Bft) S-SO 202 0 min 0 W/m 8,0 C 9,1 C 4,0 km/h (1 Bft)
03/03/2012 22:00 8,9 C 93 % 1025,3 hPa 0,0 mm 2,2 km/h (1 Bft) S-SO 202 0 min 0 W/m 7,8 C 8,9 C 4,0 km/h (1 Bft)
03/03/2012 22:10 8,8 C 94 % 1025,2 hPa 0,0 mm 2,2 km/h (1 Bft) S-SO 202 0 min 0 W/m 7,9 C 8,8 C 4,3 km/h (1 Bft)
03/03/2012 22:20 8,9 C 94 % 1025,2 hPa 0,0 mm 1,4 km/h (1 Bft) SO 225 0 min 0 W/m 8,0 C 8,9 C 1,4 km/h (1 Bft)
03/03/2012 22:30 8,9 C 94 % 1025,2 hPa 0,0 mm 1,4 km/h (1 Bft) S-SO 202 0 min 0 W/m 8,0 C 8,9 C 4,0 km/h (1 Bft)
03/03/2012 22:40 9,0 C 94 % 1025,2 hPa 0,0 mm 1,1 km/h (1 Bft) S-SO 202 0 min 0 W/m 8,1 C 9,0 C 4,3 km/h (1 Bft)
03/03/2012 22:50 9,0 C 94 % 1025,2 hPa 0,0 mm 0,4 km/h (0 Bft) SO 225 0 min 0 W/m 8,1 C 9,0 C 3,2 km/h (1 Bft)
03/03/2012 23:00 9,0 C 94 % 1025,2 hPa 0,0 mm 0,7 km/h (0 Bft) S-SO 202 0 min 0 W/m 8,1 C 9,0 C 3,2 km/h (1 Bft)
03/03/2012 23:10 8,9 C 94 % 1025,2 hPa 0,0 mm 0,4 km/h (0 Bft) S-SO 202 0 min 0 W/m 8,0 C 8,9 C 2,9 km/h (1 Bft)
03/03/2012 23:20 8,9 C 94 % 1025,1 hPa 0,0 mm 0,7 km/h (0 Bft) SO 225 0 min 0 W/m 8,0 C 8,9 C 3,2 km/h (1 Bft)
03/03/2012 23:30 8,9 C 94 % 1025,1 hPa 0,0 mm 0,4 km/h (0 Bft) SO 225 0 min 0 W/m 8,0 C 8,9 C 0,4 km/h (0 Bft)
03/03/2012 23:40 8,9 C 94 % 1025,0 hPa 0,0 mm 0,7 km/h (0 Bft) SO 225 0 min 0 W/m 8,0 C 8,9 C 4,3 km/h (1 Bft)
03/03/2012 23:50 8,9 C 94 % 1025,0 hPa 0,0 mm 0,4 km/h (0 Bft) SO 225 0 min 0 W/m 8,0 C 8,9 C 3,2 km/h (1 Bft)
_ Min-Heure 04:30 17:40 05:10 - 21:10 - - - - 04:30 04:30 19:20
Minimum _ 1,9 C 76 % 1021,4 hPa - 0,0 km/h (0 Bft) - - - - 0,7 C 1,9 C 0,0 km/h (0 Bft)
_ Max-Heure 16:40 12:40 20:50 20:40 13:50 - - 18:30 23:50 13:00 16:40 16:50
Maximum _ 13,0 C 96 % 1025,6 hPa 0,1 mm 9,7 km/h
SO (2 Bft)
- - 2 min 0 W/m 10,3 C 13,0 C 15,1 km/h
S-SO (3 Bft)
Moyenne _ 7,5 C 90 % 1023,9 hPa #0,6 mm 2,1 km/h (1 Bft) SO - #2:10 h 0 W/m 5,9 C 7,4 C 4,2 km/h (1 Bft)
Saint Bonnet de Bellac- Haute Vienne - France